sat.trackr.live / text

‹ back to catalog

DRESDEN

NORAD 65297 · 2025-185A

PAYLOAD ACTIVE UNKNOWN

§ Identity

Operator
Country
RWA
Launch date
2025-08-23
Launch site
RLLB
Launch vehicle
Mass (kg)
RCS (m²)

External: N2YO · Heavens-Above · Gunter

§ Orbital elements

Epoch: 2026-05-25T05:05:12.015168Z

Period
97.37 min
Inclination
97.9604°
Eccentricity
0.0016641
Mean motion
14.78856379 rev/d
Perigee alt
621.3 km
Apogee alt
644.6 km
Semi-major
7,011.1 km
B*
1.1044e-3
RAAN
228.7556°
Arg perigee
152.8006°
Mean anomaly
207.4080°
Rev number
4,043

§ Raw data

DRESDEN1 65297U 25185A   26145.21194462  .00008104  00000+0  11044-2 0  99912 65297  97.9604 228.7556 0016641 152.8006 207.4080 14.78856379 40431

JSON: /api/v1/satellites/65297 · /tle

For live sub-satellite position, see the globe view (requires WebGL).

§ Visibility from observer

Set your observer location to see the next 7 days of passes ≥ 10°. The values pass through the URL so the page stays shareable.

No JS? Fill the form by hand. The geolocation button needs JavaScript.